Regional Weather Roundup
Issued by NWS

Home | Current Version | Previous Version | Text Only | Print | Product List | Glossary Off
Versions: 1 2 3 4 5 6 7 8 9 10 11 12 13 14 15 16 17 18 19 20 21 22 23 24 25 26 27 28 29 30 31 32 33 34 35 36 37 38 39 40 41 42 43 44 45 46 47 48 49 50

000
ASUS43 KLOT 260608
RWRIL

ILLINOIS REGIONAL WEATHER ROUNDUP
NATIONAL WEATHER SERVICE CHICAGO/ROMEOVILLE IL
100 AM CDT SAT MAY 26 2018

NOTE: "FAIR" INDICATES FEW OR NO CLOUDS BELOW 12,000 FEET WITH NO
SIGNIFICANT WEATHER AND/OR OBSTRUCTIONS TO VISIBILITY.

* THESE STATIONS ARE NOT UNDER NWS QUALITY CONTROL. THEY ALSO MAY NOT
  REPORT WEATHER SUCH AS PRECIPITATION OR FOG.

ILZ001-002-007-009-015-016-024-260700-
NORTHWEST ILLINOIS

CITY           SKY/WX    TMP DP  RH WIND       PRES   REMARKS
MOLINE         FAIR      67  63  87 N7        29.78F
6HR MIN TEMP:  67; 6HR MAX TEMP:  80; 6HR PCP:  0.03;

STERLING*        N/A    N/A N/A N/A MISG        N/A
SAVANNA*       MOCLDY    65  63  91 NW10G22   29.79R
$$

ILZ003-004-008-010-011-017-018-260700-
NORTH CENTRAL ILLINOIS

CITY           SKY/WX    TMP DP  RH WIND       PRES   REMARKS
ROCKFORD       CLOUDY    69  59  70 SW6       29.75F
6HR MIN TEMP:  68; 6HR MAX TEMP:  76;

FREEPORT*      FAIR      67  58  73 SW10      29.77F
ROCHELLE*      FAIR      67  62  83 S10       29.76F
DE KALB*       FAIR      69  67  93 S8        29.78F
PERU*          FAIR      71  65  82 SE7       29.79F
$$

ILZ005-006-012>014-019>023-260700-
NORTHEAST ILLINOIS

CITY           SKY/WX    TMP DP  RH WIND       PRES   REMARKS
CHICAGO-OHARE  MOCLDY    74  64  71 S10       29.76F
6HR MIN TEMP:  74; 6HR MAX TEMP:  82;

CHICAGO-MIDWAY LGT RAIN  72  69  90 SW8       29.78F
6HR MIN TEMP:  72; 6HR MAX TEMP:  83; 6HR PCP:  0.13;

AURORA         FAIR      70  67  90 S8        29.79F
6HR MIN TEMP:  70; 6HR MAX TEMP:  79; 6HR PCP:  0.05;

LANSING*       FAIR      71  68  90 SW6       29.81S
JOLIET*        CLOUDY    71  70  98 CALM      29.79F
WAUKEGAN       FAIR      72  65  78 S12       29.74F
6HR MIN TEMP:  70; 6HR MAX TEMP:  77;

DUPAGE AIRPORT FAIR      71  67  87 SW12      29.77F
6HR MIN TEMP:  71; 6HR MAX TEMP:  79; 6HR PCP:  0.01;

KANKAKEE*      FAIR      67  65  93 CALM      29.80F
WHEELING       MOCLDY    74  68  81 SW8       29.78F
6HR MIN TEMP:  74; 6HR MAX TEMP:  83; 6HR PCP:  0.10;

MORRIS*        MOCLDY    71  66  86 S3        29.78F
ROMEOVILLE*    DRIZZLE   71  67  88 SW5       29.79F
NORTHERLY ISL    N/A     72  65  78 SW6         N/A
$$

LMZ740>746-260700-
SOUTHERN LAKE MICHIGAN

STATION/POSITION SKY/WX   TEMP    WIND        PRES    VSBY  WAVE
                          AIR SEA DIR/SP/G                  HT/PER
                          (F)     (DEG/KT/KT) (MB)    (MI)  (FT/S)
SOUTHERN BUOY              52 39  190/ 14/ 16 1008.1R         0
WILMETTE HARBOR            67 56  190/  8/ 10   N/A           1/ 2
HARRISON CRIB              73     220/ 13/ 15   N/A
BURNHAM HARBOR             72     230/  4/ 11   N/A
CALUMET HARBOR                    190/  3/  4 1008.5F
BURNS HARBOR               67      CALM  /  2 1009.8F
MICHIGAN CITY              64     210/  6/  6   N/A
MICHIGAN CITY 6N           62 60  250/  4/  4   N/A           1/ 2
ST. JOSEPH                 62 58  280/ 12/ 14 1009.1          2/ 3
$$

ILZ025>027-034>036-040-047-049-050-058-095>099-260700-
WEST-CENTRAL ILLINOIS

CITY           SKY/WX    TMP DP  RH WIND       PRES   REMARKS
QUINCY         CLOUDY    69  65  86 S5        29.82R
GALESBURG*     FAIR      67  66  96 CALM      29.82F
MACOMB*        PTCLDY    65  65 100 CALM      29.84R FOG
JACKSONVILLE*  CLOUDY    69  68  97 S6        29.82S
PITTSFIELD*    CLOUDY    69  69  99 CALM      29.83S FOG
$$

ILZ028>032-037-038-041>044-048-051>054-059>061-260700-
CENTRAL ILLINOIS

CITY           SKY/WX    TMP DP  RH WIND       PRES   REMARKS
PONTIAC        FAIR      69  69  98 CALM      29.81S FOG
BLOOMINGTON    FAIR      68  67  96 S9        29.81F
DECATUR        CLOUDY    70  68  93 S8        29.82F
PEORIA         FAIR      66  65  96 CALM      29.82S FOG
6HR MIN TEMP:  66; 6HR MAX TEMP:  71; 6HR PCP:  0.03;

LACON*         FAIR      68  67  96 S5        29.79F
LINCOLN*       FAIR      71  71 100 CALM      29.81F FOG
SPRINGFIELD    FAIR      70  70 100 S3        29.82S
6HR MIN TEMP:  70; 6HR MAX TEMP:  72; 6HR PCP:  0.02;

TAYLORVILLE    DRIZZLE   69  69  99 S8        29.83F
6HR MIN TEMP:  69; 6HR MAX TEMP:  74; 6HR PCP:  0.43;

$$

ILZ033-039-045-046-055>057-062-063-260700-
EAST-CENTRAL ILLINOIS

CITY           SKY/WX    TMP DP  RH WIND       PRES   REMARKS
CHAMPAIGN      FAIR      70  69  97 S10       29.82F
DANVILLE*      FAIR      70  69  98 S6        29.80F
RANTOUL*       FAIR      71  71  99 S3        29.82F
MATTOON        MOCLDY    69  67  93 SW7       29.84S
PARIS*         FAIR      68  64  87 SW6       29.85F
$$

ILZ079-100>102-260700-
SOUTHWEST ILLINOIS

CITY           SKY/WX    TMP DP  RH WIND       PRES   REMARKS
ALTON          CLOUDY    73  68  86 SW5       29.84S
BELLEVILLE     MOCLDY    71  66  85 W3        29.83F
CAHOKIA*       CLOUDY    72  65  78 S5        29.83F
SPARTA*        CLOUDY    70  70 100 SW6       29.86S
$$

ILZ064>066-069>071-074>076-080>082-084>086-088>090-092>094-260700-
SOUTH-CENTRAL ILLINOIS

CITY           SKY/WX    TMP DP  RH WIND       PRES   REMARKS
CARBONDALE     FAIR      68  67  96 S5        29.86S
6HR MIN TEMP:  67; 6HR MAX TEMP:  71;

CAIRO*         FAIR      71  69  93 S5        29.87S
EFFINGHAM*     MOCLDY    69  68  98 S3        29.87S
MARION         FAIR      67  67  98 S3        29.87F
MT. VERNON     FOG       65  65 100 CALM      29.86F VSB 1/2
CENTRALIA*     PTCLDY    67  67  99 CALM      29.84F
SALEM*         FAIR      69  66  92 S3        29.85F
METROPOLIS*    FAIR      69  68  97 CALM      29.88F FOG
$$

ILZ067-068-072-073-078-083-087-091-260700-
SOUTHEAST ILLINOIS

CITY           SKY/WX    TMP DP  RH WIND       PRES   REMARKS
LAWRENCEVILLE  FAIR      73  63  70 SW7       29.86S
FLORA*         FAIR      69  67  95 SW5       29.86S
FAIRFIELD*     MOCLDY    68  68  99 S5        29.86R
HARRISBURG*    FAIR      68  68 100 CALM      29.87F
ROBINSON*      FAIR      67  66  96 SW5       29.86S
CARMI*         FAIR      70  67  92 S3        29.86F
$$

ABBREVIATIONS USED IN REMARKS
   TC - TEMPERATURE IN CELSIUS
  WCI - WIND CHILL INDEX
   HX - HEAT INDEX
  VSB - VISIBILITY
$$




USA.gov is the U.S. government's official web portal to all federal, state and local government web resources and services.